This is the latest recevied weather packets stored in our database for station/object DG8SF-13. If no packets are shown the sender has not sent any weather packets the latest 10 day(s).
| Time | Temp. | Humidity | Pressure | Rain* | Wind** | Luminosity | Snow |
|---|---|---|---|---|---|---|---|
| 1777820420 | 28.33° C | 24% | 1011.2 hPa | 0 mm | - | - | - |
| 1777820106 | 28.89° C | 22% | 1011.3 hPa | 0 mm | - | - | - |
| 1777819797 | 28.33° C | 24% | 1011.3 hPa | 0 mm | - | - | - |
| 1777819483 | 27.22° C | 24% | 1011.4 hPa | 0 mm | - | - | - |
| 1777819172 | 28.33° C | 24% | 1011.5 hPa | 0 mm | - | - | - |
| 1777818859 | 27.22° C | 25% | 1011.5 hPa | 0 mm | - | - | - |
| 1777818549 | 28.89° C | 24% | 1011.6 hPa | 0 mm | - | - | - |
| 1777818235 | 27.78° C | 24% | 1011.6 hPa | 0 mm | - | - | - |
| 1777817923 | 27.78° C | 24% | 1011.7 hPa | 0 mm | - | - | - |
| 1777817613 | 27.22° C | 27% | 1011.8 hPa | 0 mm | - | - | - |
| 1777817300 | 27.22° C | 27% | 1011.8 hPa | 0 mm | - | - | - |
| 1777816986 | 27.22° C | 26% | 1011.9 hPa | 0 mm | - | - | - |
| 1777816677 | 26.67° C | 27% | 1011.9 hPa | 0 mm | - | - | - |
| 1777816362 | 25.56° C | 27% | 1012.2 hPa | 0 mm | - | - | - |
| 1777816050 | 25° C | 29% | 1012.3 hPa | 0 mm | - | - | - |
| 1777815740 | 25° C | 28% | 1012.3 hPa | 0 mm | - | - | - |
| 1777815427 | 25° C | 29% | 1012.3 hPa | 0 mm | - | - | - |
| 1777815115 | 25° C | 27% | 1012.4 hPa | 0 mm | - | - | - |
| 1777814802 | 25° C | 30% | 1012.4 hPa | 0 mm | - | - | - |
| 1777814494 | 25° C | 29% | 1012.5 hPa | 0 mm | - | - | - |
| 1777814179 | 25° C | 30% | 1012.5 hPa | 0 mm | - | - | - |
| 1777813868 | 25° C | 28% | 1012.6 hPa | 0 mm | - | - | - |
| 1777813554 | 25° C | 28% | 1012.6 hPa | 0 mm | - | - | - |
| 1777813245 | 25° C | 28% | 1012.7 hPa | 0 mm | - | - | - |
| 1777812930 | 25.56° C | 27% | 1012.7 hPa | 0 mm | - | - | - |
* Rain latest hour (hover to see other rain measurements)
** Current wind speed in m/s (hover to see current wind gust speed)